This demonstration page uses our WeatherBlox Daily Observations layout. Learn more.

36.17497, -115.13722

Hourly Observations for February 26, 2015

Temp ( °F °C ) Dew Point ( °F °C ) Humidity (%) Winds ( mph kmh ) Pressure ( in mb ) Visibility ( mi km ) Precip ( " mm )
12:53 am 00:53 Clear 48 8.9 31 -0.6 52 52 N 7 11 29.99 1016 10 16.0934 0 0
1:53 am 01:53 Clear 47 8.3 31 -0.6 54 54 NW 7 11 29.98 1015 10 16.0934 0 0
2:53 am 02:53 Clear 47 8.3 30 -1.1 52 52 W 5 7 29.96 1015 10 16.0934 0 0
3:53 am 03:53 Clear 45 7.2 29 -1.7 54 54 NNW 6 9 29.94 1014 10 16.0934 0 0
4:53 am 04:53 Clear 46 7.8 28 -2.2 50 50 W 5 7 29.94 1014 10 16.0934 0 0
5:53 am 05:53 Clear 45 7.2 27 -2.8 49 49 NW 5 7 29.93 1014 10 16.0934 0 0
6:53 am 06:53 Sunny 47 8.3 26 -3.3 44 44 NNW 5 7 29.94 1014 10 16.0934 0 0
7:53 am 07:53 Sunny 50 10 27 -2.8 41 41 WSW 5 7 29.96 1014 10 16.0934 0 0
8:53 am 08:53 Sunny 56 13.3 27 -2.8 33 33 Calm 29.94 1014 10 16.0934 0 0
9:53 am 09:53 Sunny 58 14.4 29 -1.7 33 33 SE 7 11 29.94 1014 10 16.0934 0 0
10:53 am 10:53 Sunny 62 16.7 24 -4.4 23 23 E 7 11 29.93 1014 10 16.0934 0 0
11:53 am 11:53 Sunny 69 20.6 11 -11.7 10 10 N 13 20 29.88 1012 10 16.0934 0 0
12:53 pm 12:53 Sunny 71 21.7 11 -11.7 10 10 N 16 26 29.83 1010 10 16.0934 0 0
1:53 pm 13:53 Sunny 71 21.7 13 -10.6 10 10 NNW 20 31 29.8 1009 10 16.0934 0 0
2:53 pm 14:53 Sunny 71 21.7 14 -10 11 11 NNW 10 17 29.79 1009 10 16.0934 0 0
3:53 pm 15:53 Sunny 71 21.7 13 -10.6 10 10 NNE 15 24 29.77 1008 10 16.0934 0 0
4:53 pm 16:53 Sunny 67 19.4 17 -8.3 15 15 SE 13 20 29.78 1008 10 16.0934 0 0
5:53 pm 17:53 Clear 63 17.2 20 -6.7 19 19 SE 5 7 29.79 1009 10 16.0934 0 0
6:53 pm 18:53 Clear 62 16.7 20 -6.7 20 20 Calm 29.8 1009 10 16.0934 0 0
7:53 pm 19:53 Clear 58 14.4 24 -4.4 27 27 NNW 5 7 29.81 1010 10 16.0934 0 0
8:53 pm 20:53 Clear 57 13.9 26 -3.3 30 30 N 3 6 29.81 1010 10 16.0934 0 0
9:53 pm 21:53 Clear 55 12.8 26 -3.3 33 33 NE 6 9 29.82 1010 10 16.0934 0 0
10:53 pm 22:53 Clear 56 13.3 21 -6.1 26 26 N 9 15 29.82 1010 10 16.0934 0 0
11:53 pm 23:53 Clear 57 13.9 18 -7.8 22 22 ENE 7 11 29.82 1010 10 16.0934 0 0

Powered by AerisWeather